Location: Berg
(47.2344°N, 9.5296°E)
Time: 23:35:49
(UTC+00:00)

AAUSAT CUBESAT 2 - Pass Details

Date: 02 December 2021
Orbit: 571 x 586 km, 97.5° (Epoch: 19 January)

Event Time Altitude Azimuth Distance (km) Brightness Sun altitude
Rises 16:08:19 0° 185° (S) 2,769 ? -6.0°
Reaches altitude 10° 16:10:34 10° 194° (SSW) 1,875 ? -6.3°
Maximum altitude 16:14:21 38° 263° (W) 888 ? -6.9°
Drops below altitude 10° 16:18:11 10° 332° (NNW) 1,887 ? -7.5°
Sets 16:20:28 0° 340° (NNW) 2,790 ? -7.9°
